FLYING LAPTOP

Last updated on Sat Jul 18 2026 00:03:36 GMT+0000 (Coordinated Universal Time)

1 42831U 17042G 26198.71276133 .00002081 00000+0 16558-3 0 9996 2 42831 97.4819 353.0993 0019601 24.4623 335.7527 15.01323225491031
UTC large
Height (km)
Speed (km/s)
/
Latitude / Longitude
Inclination (degrees)
Orbital Period (minutes)
Azimuth
Elevation
Range (km)
Doppler Factor

Next 0 passes for location: London (51.5072 / 0.1276)

No passes found over London.
FLYING LAPTOP